K5LRY-13 Weather Reports


Display with metric or nautical units.
time (UTC)temp
F
wind
direction
speed
MPH
gust
MPH
rain 1hr
in
rain 24hr
in
rain mn
in
humidity
%
barometer
mb
20260903234815 69 254 1.0 14.0 0.00 0.00 0.00 41 1031.0
20260903233337 72 272 4.0 16.0 0.00 0.00 0.00 39 1031.1
20260903231850 74 278 1.0 5.0 0.00 0.00 0.00 31 1030.8
20260903230324 75 282 0.0 9.0 0.00 0.00 0.00 30 1030.7
20260903224838 75 179 1.0 5.0 0.00 0.00 0.00 28 1030.9
20260903223312 76 172 2.0 8.0 0.00 0.00 0.00 28 1031.0
20260903221824 77 224 2.0 7.0 0.00 0.00 0.00 27 1031.2
20260903220340 77 218 1.0 15.0 0.00 0.00 0.00 28 1031.2
20260903214813 76 191 6.0 10.0 0.00 0.00 0.00 29 1031.3
20260903213347 76 279 7.0 13.0 0.00 0.00 0.00 27 1031.5
20260903211820 77 184 3.0 11.0 0.00 0.00 0.00 28 1031.6
20260903210314 78 243 3.0 10.0 0.00 0.00 0.00 27 1031.6
20260903204828 77 166 6.0 12.0 0.00 0.00 0.00 27 1032.0
20260903203323 77 197 5.0 13.0 0.00 0.00 0.00 27 1031.9
20260903201815 77 205 6.0 13.0 0.00 0.00 0.00 28 1032.1
20260903200330 76 226 5.0 11.0 0.00 0.00 0.00 28 1032.5
20260903194822 76 243 7.0 13.0 0.00 0.00 0.00 29 1032.5
20260903193337 75 160 5.0 10.0 0.00 0.00 0.00 33 1032.9
20260903191830 74 251 5.0 16.0 0.00 0.00 0.00 34 1032.8
20260903190324 74 247 5.0 15.0 0.00 0.00 0.00 32 1033.0
20260903184838 73 236 3.0 11.0 0.00 0.00 0.00 34 1033.0
20260903183332 73 215 2.0 9.0 0.00 0.00 0.00 38 1033.2
20260903181817 71 185 2.0 11.0 0.00 0.00 0.00 38 1033.4
20260903180312 69 217 3.0 11.0 0.00 0.00 0.00 40 1033.4
20260903174825 69 197 3.0 7.0 0.00 0.00 0.00 43 1033.6
20260903173321 69 201 7.0 11.0 0.00 0.00 0.00 40 1033.4
20260903171814 69 188 3.0 7.0 0.00 0.00 0.00 42 1033.4
20260903170329 67 206 2.0 9.0 0.00 0.00 0.00 41 1033.3
20260903164821 65 158 2.0 9.0 0.00 0.00 0.00 46 1033.3
20260903163336 66 174 3.0 9.0 0.00 0.00 0.00 44 1033.3
20260903161828 66 260 4.0 9.0 0.00 0.00 0.00 45 1033.1
20260903160342 66 213 3.0 5.0 0.00 0.00 0.00 43 1032.9
20260903154815 64 170 4.0 8.0 0.00 0.00 0.00 47 1033.0
20260903153329 63 201 3.0 9.0 0.00 0.00 0.00 48 1032.9
20260903151822 62 164 3.0 11.0 0.00 0.00 0.00 50 1032.7
20260903150316 59 198 3.0 7.0 0.00 0.00 0.00 55 1032.9
20260903144837 56 176 3.0 7.0 0.00 0.00 0.00 69 1032.8
20260903143324 53 256 0.0 0.0 0.00 0.00 0.00 80 1033.1
20260903141839 51 256 0.0 0.0 0.00 0.00 0.00 84 1032.8
20260903140312 49 256 0.0 0.0 0.00 0.00 0.00 87 1032.6
20260903134826 48 256 0.0 0.0 0.00 0.00 0.00 86 1032.4
20260903133321 48 256 0.0 0.0 0.00 0.00 0.00 85 1032.2
20260903131814 48 256 0.0 0.0 0.00 0.00 0.00 85 1032.1
20260903130328 48 256 0.0 0.0 0.00 0.00 0.00 85 1032.1
20260903124850 48 256 0.0 0.0 0.00 0.00 0.00 85 1031.9
20260903123316 48 256 0.0 0.0 0.00 0.00 0.00 86 1032.0
20260903121830 48 256 0.0 0.0 0.00 0.00 0.00 87 1031.8
20260903120323 48 256 0.0 0.0 0.00 0.00 0.00 87 1031.8
20260903114818 47 256 0.0 0.0 0.00 0.00 0.00 87 1031.8
20260903113334 47 256 0.0 0.0 0.00 0.00 0.00 86 1031.8
20260903111826 46 256 0.0 0.0 0.00 0.00 0.00 85 1031.9
20260903110341 46 256 0.0 0.0 0.00 0.00 0.00 84 1031.9
20260903104814 46 256 0.0 0.0 0.00 0.00 0.00 83 1031.8
20260903103328 47 256 0.0 0.0 0.00 0.00 0.00 82 1032.0
20260903101826 47 256 0.0 0.0 0.00 0.00 0.00 82 1031.9
20260903100320 47 256 0.0 0.0 0.00 0.00 0.00 81 1031.8
20260903094813 47 256 0.0 0.0 0.00 0.00 0.00 80 1031.7
20260903093328 48 256 0.0 0.0 0.00 0.00 0.00 79 1031.6
20260903091821 48 256 0.0 0.0 0.00 0.00 0.00 78 1031.7
20260903090315 49 256 0.0 0.0 0.00 0.00 0.00 78 1031.8
20260903084829 49 256 0.0 0.0 0.00 0.00 0.00 77 1031.8
20260903083324 49 256 0.0 0.0 0.00 0.00 0.00 77 1031.9
20260903081816 49 256 0.0 0.0 0.00 0.00 0.00 76 1031.9
20260903080330 50 256 0.0 0.0 0.00 0.00 0.00 75 1032.1
20260903074824 50 256 0.0 0.0 0.00 0.00 0.00 75 1032.1
20260903073319 50 256 0.0 0.0 0.00 0.00 0.00 74 1032.1
20260903071832 50 256 0.0 0.0 0.00 0.00 0.00 73 1032.0
20260903070319 50 256 0.0 0.0 0.00 0.00 0.00 71 1032.0
20260903064813 51 256 0.0 0.0 0.00 0.00 0.00 69 1031.9
20260903063328 51 256 0.0 0.0 0.00 0.00 0.00 68 1031.8
20260903061829 52 256 0.0 0.0 0.00 0.00 0.00 68 1032.0
20260903060343 51 256 0.0 0.0 0.00 0.00 0.00 68 1032.0
20260903054817 51 256 0.0 3.0 0.00 0.00 0.00 68 1032.1
20260903053331 51 256 0.0 2.0 0.00 0.00 0.00 65 1032.0
20260903051817 51 256 0.0 0.0 0.00 0.00 0.00 64 1032.0
20260903050312 52 256 0.0 2.0 0.00 0.00 0.00 62 1032.1
20260903044832 52 256 0.0 0.0 0.00 0.00 0.00 61 1032.1
20260903043320 53 256 0.0 0.0 0.00 0.00 0.00 59 1032.1
20260903041813 53 257 0.0 1.0 0.00 0.00 0.00 57 1032.1
20260903040312 54 257 0.0 0.0 0.00 0.00 0.00 55 1032.1
20260903034850 54 258 0.0 2.0 0.00 0.00 0.00 53 1032.3
20260903033320 55 258 0.0 0.0 0.00 0.00 0.00 51 1032.2
20260903031814 57 258 0.0 0.0 0.00 0.00 0.00 49 1032.1
20260903030328 58 258 0.0 0.0 0.00 0.00 0.00 46 1032.1
20260903024822 60 258 0.0 6.0 0.00 0.00 0.00 44 1032.0
20260903023317 62 258 0.0 0.0 0.00 0.00 0.00 40 1031.8
20260903021851 64 258 0.0 0.0 0.00 0.00 0.00 36 1031.7
20260903020345 66 258 0.0 0.0 0.00 0.00 0.00 31 1031.7
20260903014819 68 258 0.0 4.0 0.00 0.00 0.00 28 1031.6
20260903013313 70 260 1.0 9.0 0.00 0.00 0.00 25 1031.5
20260903011825 72 266 1.0 9.0 0.00 0.00 0.00 23 1031.7
20260903010319 74 269 3.0 9.0 0.00 0.00 0.00 20 1031.6
20260903004859 75 270 4.0 10.0 0.00 0.00 0.00 19 1031.8
20260903003353 77 275 4.0 14.0 0.00 0.00 0.00 19 1031.9
20260903001825 77 244 3.0 8.0 0.00 0.00 0.00 19 1031.9
20260903000312 76 268 0.0 10.0 0.00 0.00 0.00 21 1032.0